Regional Weather Roundup
Issued by NWS

Home | Current Version | Previous Version | Text Only | Print | Product List | Glossary Off
Versions: 1 2 3 4 5 6 7 8 9 10 11 12 13 14 15 16 17 18 19 20 21 22 23 24 25 26 27 28 29 30 31 32 33 34 35 36 37 38 39 40 41 42 43 44 45 46 47 48 49 50

000
ASUS43 KFSD 241310
RWRSD

WEATHER ROUNDUP FOR SOUTH DAKOTA
NATIONAL WEATHER SERVICE SIOUX FALLS SD
800 AM CDT SUN JUL 24 2016

NOTE: "FAIR" INDICATES FEW OR NO CLOUDS BELOW 12,000 FEET WITH NO
SIGNIFICANT WEATHER AND/OR OBSTRUCTIONS TO VISIBILITY.


SDZ001>005-009-010-012>017-241400-
NORTHWEST AND NORTH CENTRAL SOUTH DAKOTA

CITY           SKY/WX    TMP DP  RH WIND       PRES   REMARKS
BUFFALO          N/A     64  51  62 SW5       30.06R
FAITH            N/A     62  48  60 S6        30.10R
MOBRIDGE       MOSUNNY   66  58  75 W6        30.02R
$$

SDZ012>016-024>037-041>051-057-063-072>074-241400-
SOUTHWEST AND SOUTH CENTRAL SOUTH DAKOTA

CITY           SKY/WX    TMP DP  RH WIND       PRES   REMARKS
RAPID CTY ARPT CLOUDY    62  56  80 CALM      30.13R
PIERRE         LGT RAIN  65  60  84 NW9       30.04F
CUSTER         CLOUDY    58  45  62 NE8       30.24R
ELLSWORTH AFB  CLOUDY    62  56  82 W5        30.12
PHILIP         CLOUDY    64  56  75 N7        30.07F
PINE RIDGE     CLOUDY    62  53  72 E7        30.12R
WINNER         CLOUDY    68  55  63 N5        30.05F
$$

SDZ004>011-016>023-039-040-241400-
NORTHEAST SOUTH DAKOTA

CITY           SKY/WX    TMP DP  RH WIND       PRES   REMARKS
ABERDEEN       MOSUNNY   68  58  70 NW14      29.96R
WATERTOWN      SUNNY     67  60  78 N10       29.96R
BROOKINGS      MOSUNNY   67  63  87 N7        29.94S
SISSETON         N/A     70  60  70 NW14      29.91R
$$

SDZ017-020-022-023-036>040-048>070-241400-
SOUTHEAST SOUTH DAKOTA

CITY           SKY/WX    TMP DP  RH WIND       PRES   REMARKS
SIOUX FALLS    CLOUDY    70  66  87 NW10      29.95R
HURON          MOSUNNY   65  60  84 NW8       29.99R
CHAMBERLAIN    PTSUNNY   71  59  65 NW9       30.03F
MITCHELL       CLOUDY    66  61  84 NW5       30.00R
YANKTON        SUNNY     72  66  83 NW10      29.96R
$$

ABBREVIATIONS USED IN REMARKS
   TC - TEMPERATURE IN CELSIUS
  WCI - WIND CHILL INDEX
   HX - HEAT INDEX
  VSB - VISIBILITY





USA.gov is the U.S. government's official web portal to all federal, state and local government web resources and services.